Date String (YYYY-MM-DD hh:mm:ss) UTC,Instrument flags,absolute air pressure of the measurement (hPa),sample flow rate (lpm),inlet stack bypass flow (lpm),air temperature of the measurement (°C),ambient temperature measured by the external sensor (°C),aerosol sample conditioner tube jacket temperature (°C),OPC LED temperature (°C),internal box temperature (°C),relative humidity of the measurement (%),span deviation,mass concentration of particles derived from Lorenz-Mie calculation of OPC scattering (μg/m³),mass concentration of particles derived from Lorenz-Mie calculation of OPC scattering (μg/m³),mass concentration of particles derived from Lorenz-Mie calculation of OPC scattering (μg/m³)
DateTimeUTC,F1_M11,P_M11,Q1_M11,Q2_M11,T1_M11,T2_M11,T3_M11,T4_M11,T5_M11,U1_M11,ZSPAN_M11,X2_M11,X0_M11,X1_M11
2024-01-02 10:00:00,SystemResetWarning,0833.4,5.01,000.00,023.1,022.2,000.0,031.5,024.5,12.1,0000.0,0003.78,0007.67,0003.49
2024-01-02 10:01:00,SystemResetWarning,0833.4,5.00,000.00,023.1,022.2,000.0,031.5,024.5,12.1,0000.0,0003.82,0008.42,0003.48
2024-01-02 10:02:00,SystemResetWarning,0833.4,5.00,000.00,023.1,022.2,000.0,031.5,024.5,12.2,0000.0,0003.86,0008.47,0003.50
2024-01-02 10:03:00,SystemResetWarning,0833.4,5.00,000.00,023.1,022.2,000.0,031.5,024.4,12.2,0000.0,0003.89,0008.50,0003.51
2024-01-02 10:04:00,SystemResetWarning,0833.4,5.00,000.00,023.1,022.2,000.0,031.4,024.4,12.2,0000.0,0003.95,0008.63,0003.51
2024-01-02 10:05:00,SystemResetWarning,0833.5,4.99,000.00,023.1,022.2,000.0,031.4,024.4,12.2,0000.0,0003.95,0008.40,0003.50
2024-01-02 10:06:00,SystemResetWarning,0833.4,5.00,000.00,023.0,022.2,000.0,031.4,024.4,12.2,0000.0,0003.95,0008.36,0003.51
2024-01-02 10:07:00,SystemResetWarning,0833.4,5.00,000.00,023.0,022.2,000.0,031.4,024.4,12.2,0000.0,0003.98,0008.45,0003.52
2024-01-02 10:08:00,SystemResetWarning,0833.5,5.00,000.00,023.0,022.2,000.0,031.4,024.4,12.2,0000.0,0004.01,0008.70,0003.53
2024-01-02 10:09:00,SystemResetWarning,0833.6,5.00,000.00,023.0,022.2,000.0,031.4,024.4,12.2,0000.0,0004.01,0008.49,0003.54
2024-01-02 10:10:00,SystemResetWarning,0833.5,5.00,000.00,023.0,022.2,000.0,031.4,024.4,12.2,0000.0,0004.00,0008.69,0003.54
2024-01-02 10:11:00,SystemResetWarning,0833.6,5.00,000.00,023.0,022.2,000.0,031.4,024.4,12.3,0000.0,0004.02,0008.62,0003.56
2024-01-02 10:12:00,SystemResetWarning,0833.6,5.00,000.00,023.0,022.1,000.0,031.4,024.4,12.3,0000.0,0004.04,0008.02,0003.57
2024-01-02 10:13:00,SystemResetWarning,0833.6,5.00,000.00,023.0,022.1,000.0,031.4,024.4,12.3,0000.0,0004.01,0007.93,0003.57
2024-01-02 10:14:00,SystemResetWarning,0833.6,5.00,000.00,023.0,022.1,000.0,031.4,024.3,12.3,0000.0,0004.00,0007.90,0003.57
2024-01-02 10:15:00,SystemResetWarning,0833.6,5.00,000.00,023.0,022.1,000.0,031.3,024.3,12.3,0000.0,0003.99,0007.86,0003.58
2024-01-02 10:16:00,SystemResetWarning,0833.6,5.00,000.00,022.9,022.1,000.0,031.3,024.3,12.3,0000.0,0003.98,0007.84,0003.60
2024-01-02 10:17:00,SystemResetWarning,0833.5,5.00,000.00,022.9,022.1,000.0,031.3,024.3,12.3,0000.0,0004.01,0008.24,0003.61
2024-01-02 10:18:00,SystemResetWarning,0833.5,5.00,000.00,022.9,022.1,000.0,031.3,024.3,12.3,0000.0,0004.01,0008.32,0003.61
2024-01-02 10:19:00,SystemResetWarning,0833.5,5.00,000.00,022.9,022.1,000.0,031.3,024.3,12.3,0000.0,0004.02,0007.99,0003.62
2024-01-02 10:20:00,SystemResetWarning,0833.5,5.00,000.00,022.9,022.1,000.0,031.3,024.2,12.3,0000.0,0004.02,0007.76,0003.62
2024-01-02 10:21:00,SystemResetWarning,0833.5,5.00,000.00,022.9,022.1,000.0,031.3,024.2,12.3,0000.0,0004.01,0007.45,0003.60
2024-01-02 10:22:00,SystemResetWarning,0833.4,5.00,000.00,022.9,022.1,000.0,031.3,024.2,12.4,0000.0,0004.03,0007.44,0003.60
2024-01-02 10:23:00,SystemResetWarning,0833.4,5.00,000.00,022.9,022.1,000.0,031.3,024.2,12.4,0000.0,0004.04,0008.41,0003.61
2024-01-02 10:24:00,SystemResetWarning,0833.4,5.00,000.00,022.9,022.1,000.0,031.3,024.2,12.4,0000.0,0004.10,0008.73,0003.62
2024-01-02 10:25:00,SystemResetWarning,0833.4,5.00,000.00,022.9,022.0,000.0,031.3,024.2,12.4,0000.0,0004.13,0008.88,0003.62
2024-01-02 10:26:00,SystemResetWarning,0833.4,5.00,000.00,022.9,022.0,000.0,031.3,024.2,12.4,0000.0,0004.15,0009.06,0003.62
2024-01-02 10:27:00,SystemResetWarning,0833.4,5.00,000.00,022.9,022.0,000.0,031.3,024.2,12.4,0000.0,0004.17,0009.61,0003.63
2024-01-02 10:28:00,SystemResetWarning,0833.4,5.00,000.00,022.8,022.0,000.0,031.2,024.2,12.4,0000.0,0004.23,0009.80,0003.64
2024-01-02 10:29:00,SystemResetWarning,0833.5,5.00,000.00,022.8,022.0,000.0,031.2,024.2,12.4,0000.0,0004.24,0009.53,0003.65
2024-01-02 10:30:00,SystemResetWarning,0833.4,5.00,000.00,022.8,022.0,000.0,031.2,024.2,12.4,0000.0,0004.24,0009.87,0003.65
2024-01-02 10:31:00,SystemResetWarning,0833.4,5.00,000.00,022.8,022.0,000.0,031.2,024.1,12.5,0000.0,0004.23,0010.82,0003.66
2024-01-02 10:32:00,SystemResetWarning,0833.4,5.00,000.00,022.8,022.0,000.0,031.2,024.1,12.5,0000.0,0004.26,0011.47,0003.68
2024-01-02 10:33:00,SystemResetWarning,0833.4,5.00,000.00,022.8,022.0,000.0,031.2,024.1,12.5,0000.0,0004.25,0011.76,0003.69
2024-01-02 10:34:00,SystemResetWarning,0833.4,5.00,000.00,022.8,022.0,000.0,031.2,024.1,12.5,0000.0,0004.23,0011.36,0003.70
2024-01-02 10:35:00,SystemResetWarning,0833.4,5.00,000.00,022.8,022.0,000.0,031.2,024.1,12.5,0000.0,0004.21,0011.41,0003.72
2024-01-02 10:36:00,SystemResetWarning,0833.4,5.00,000.00,022.8,022.0,000.0,031.2,024.1,12.5,0000.0,0004.21,0011.57,0003.72
2024-01-02 10:37:00,SystemResetWarning,0833.4,5.00,000.00,022.8,022.0,000.0,031.2,024.1,12.5,0000.0,0004.22,0011.59,0003.72
2024-01-02 10:38:00,SystemResetWarning,0833.4,5.00,000.00,022.8,022.0,000.0,031.2,024.1,12.5,0000.0,0004.22,0011.09,0003.72
2024-01-02 10:39:00,SystemResetWarning,0833.4,5.00,000.00,022.8,022.0,000.0,031.1,024.1,12.5,0000.0,0004.19,0010.93,0003.71
2024-01-02 10:40:00,SystemResetWarning,0833.2,5.00,000.00,022.8,022.0,000.0,031.1,024.1,12.5,0000.0,0004.18,0011.12,0003.72
2024-01-02 10:41:00,SystemResetWarning,0833.3,5.00,000.00,022.7,022.0,000.0,031.1,024.1,12.5,0000.0,0004.20,0010.97,0003.74
2024-01-02 10:42:00,SystemResetWarning,0833.2,5.00,000.00,022.7,022.0,000.0,031.1,024.0,12.5,0000.0,0004.23,0010.13,0003.75
2024-01-02 10:43:00,SystemResetWarning,0833.2,5.00,000.00,022.7,021.9,000.0,031.1,024.0,12.5,0000.0,0004.25,0009.55,0003.76
2024-01-02 10:44:00,SystemResetWarning,0833.2,5.00,000.00,022.7,021.9,000.0,031.1,024.0,12.6,0000.0,0004.23,0009.12,0003.76
2024-01-02 10:45:00,SystemResetWarning,0833.2,5.00,000.00,022.7,021.9,000.0,031.1,024.0,12.6,0000.0,0004.24,0008.68,0003.76
2024-01-02 10:46:00,SystemResetWarning,0833.2,5.00,000.00,022.7,021.9,000.0,031.1,024.0,12.6,0000.0,0004.21,0008.26,0003.75
2024-01-02 10:47:00,SystemResetWarning,0833.2,5.00,000.00,022.7,021.9,000.0,031.1,024.0,12.6,0000.0,0004.22,0008.08,0003.75
2024-01-02 10:48:00,SystemResetWarning,0833.2,5.00,000.00,022.7,021.9,000.0,031.1,024.0,12.6,0000.0,0004.22,0008.01,0003.76
2024-01-02 10:49:00,SystemResetWarning,0833.2,5.00,000.00,022.7,021.9,000.0,031.1,024.0,12.6,0000.0,0004.22,0007.92,0003.76
2024-01-02 10:50:00,SystemResetWarning,0833.2,5.00,000.00,022.6,021.9,000.0,031.1,024.0,12.6,0000.0,0004.24,0007.93,0003.76
2024-01-02 10:51:00,SystemResetWarning,0833.2,5.00,000.00,022.6,021.9,000.0,031.0,024.0,12.6,0000.0,0004.26,0007.59,0003.76
2024-01-02 10:52:00,SystemResetWarning,0833.2,5.00,000.00,022.6,021.9,000.0,031.0,024.0,12.6,0000.0,0004.23,0007.39,0003.75
2024-01-02 10:53:00,SystemResetWarning,0833.2,4.99,000.00,022.6,021.8,000.0,031.0,024.0,12.6,0000.0,0004.22,0007.73,0003.75
2024-01-02 10:54:00,SystemResetWarning,0833.3,5.00,000.00,022.6,021.8,000.0,031.0,024.0,12.6,0000.0,0004.20,0007.75,0003.74
2024-01-02 10:55:00,SystemResetWarning,0833.3,5.00,000.00,022.6,021.8,000.0,031.0,024.0,12.6,0000.0,0004.20,0007.74,0003.74
2024-01-02 10:56:00,SystemResetWarning,0833.3,5.01,000.00,022.6,021.8,000.0,031.0,024.0,12.6,0000.0,0004.22,0007.96,0003.74
2024-01-02 10:57:00,SystemResetWarning,0833.2,5.00,000.00,022.6,021.8,000.0,031.0,024.0,12.6,0000.0,0004.22,0008.13,0003.74
2024-01-02 10:58:00,SystemResetWarning,0833.2,5.00,000.00,022.6,021.8,000.0,031.0,024.0,12.6,0000.0,0004.21,0008.41,0003.75
2024-01-02 10:59:00,SystemResetWarning,0833.2,5.00,000.00,022.6,021.8,000.0,031.0,024.0,12.6,0000.0,0004.20,0008.40,0003.75
